QPF
0.00 0.00 0.01 0.01 0.02 0.02 0.02 0.03 0.03 0.03 0.03 0.01 0.02 0.02 0.04 0.04 0.02 0.01 0.03 0.06 0.06 0.07 0.08 0.08 0.08 0.05 0.04 0.05 0.07 0.07 0.07 0.06 0.06 0.05 0.05 0.04 0.05 0.07 0.08 0.08 0.07 0.05 0.04
0.00 0.01 0.01 0.01 0.01 0.02 0.02 0.02 0.02 0.02 0.02 0.02 0.02 0.03 0.04 0.04 0.03 0.01 0.02 0.03 0.05 0.06 0.07 0.08 0.08 0.06 0.04 0.04 0.04 0.06 0.06 0.05 0.05 0.05 0.05 0.04 0.03 0.05 0.06 0.06 0.08 0.07 0.07
0.00 0.01 0.01 0.01 0.01 0.03 0.03 0.02 0.01 0.02 0.02 0.01 0.02 0.03 0.04 0.03 0.03 0.03 0.03 0.01 0.02 0.04 0.05 0.07 0.07 0.06 0.04 0.04 0.04 0.04 0.03 0.03 0.04 0.04 0.03 0.02 0.01 0.02 0.03 0.04 0.05 0.06 0.09
0.01 0.01 0.01 0.01 0.02 0.03 0.02 0.02 0.02 0.01 0.01 0.01 0.02 0.04 0.04 0.03 0.04 0.04 0.03 0.02 0.02 0.01 0.03 0.04 0.04 0.04 0.04 0.03 0.03 0.03 0.03 0.03 0.03 0.04 0.03 0.02 0.01 0.02 0.03 0.04 0.06 0.04 0.04
0.01 0.00 0.00 0.01 0.02 0.02 0.02 0.01 0.01 0.01 0.01 0.01 0.02 0.02 0.03 0.04 0.04 0.04 0.03 0.02 0.02 0.01 0.01 0.01 0.02 0.02 0.03 0.03 0.03 0.04 0.04 0.04 0.05 0.05 0.04 0.03 0.03 0.03 0.03 0.03 0.04 0.04 0.04
0.01 0.00 0.01 0.01 0.01 0.01 0.01 0.00 0.00 0.01 0.01 0.01 0.01 0.01 0.01 0.02 0.02 0.02 0.02 0.02 0.01 0.01 0.01 0.02 0.01 0.02 0.02 0.02 0.03 0.05 0.05 0.06 0.06 0.07 0.05 0.04 0.03 0.04 0.03 0.03 0.04 0.04 0.06
0.01 0.00 0.01 0.01 0.01 0.01 0.01 0.00 0.01 0.01 0.00 0.01 0.01 0.01 0.01 0.02 0.02 0.03 0.03 0.03 0.03 0.01 0.01 0.02 0.01 0.01 0.01 0.01 0.01 0.02 0.03 0.05 0.06 0.06 0.06 0.04 0.04 0.04 0.03 0.03 0.03 0.04 0.05
0.01 0.00 0.00 0.01 0.00 0.00 0.01 0.01 0.02 0.01 0.01 0.00 0.01 0.01 0.01 0.02 0.03 0.02 0.03 0.03 0.02 0.01 0.01 0.02 0.01 0.01 0.01 0.01 0.01 0.01 0.02 0.04 0.04 0.04 0.04 0.05 0.05 0.05 0.04 0.05 0.04 0.04 0.04
0.00 0.00 0.01 0.01 0.01 0.00 0.01 0.01 0.03 0.04 0.01 0.00 0.01 0.01 0.01 0.01 0.02 0.02 0.03 0.03 0.02 0.02 0.01 0.01 0.02 0.02 0.01 0.01 0.01 0.01 0.02 0.04 0.04 0.04 0.04 0.03 0.03 0.04 0.03 0.04 0.05 0.04 0.05
0.00 0.00 0.00 0.01 0.01 0.01 0.01 0.00 0.01 0.03 0.02 0.01 0.01 0.01 0.01 0.01 0.01 0.02 0.02 0.03 0.03 0.02 0.02 0.01 0.02 0.02 0.01 0.01 0.01 0.01 0.02 0.03 0.03 0.08 0.12 0.08 0.05 0.04 0.02 0.02 0.03 0.03 0.03
0.01 0.01 0.00 0.00 0.00 0.00 0.01 0.00 0.00 0.01 0.02 0.02 0.01 0.00 0.00 0.00 0.01 0.01 0.01 0.03 0.03 0.02 0.01 0.02 0.03 0.02 0.01 0.01 0.00 0.00 0.01 0.02 0.02 0.04 0.08 0.07 0.06 0.04 0.03 0.04 0.05 0.04 0.03
0.01 0.02 0.01 0.00 0.00 0.01 0.01 0.01 0.01 0.01 0.01 0.00 0.00 0.00 0.00 0.01 0.01 0.01 0.01 0.02 0.01 0.01 0.01 0.03 0.03 0.03 0.02 0.02 0.01 0.01 0.00 0.01 0.01 0.01 0.02 0.03 0.04 0.04 0.04 0.04 0.05 0.03 0.02
0.01 0.01 0.00 0.00 0.01 0.01 0.01 0.01 0.01 0.00 0.00 0.00 0.00 0.00 0.00 0.01 0.01 0.00 0.00 0.01 0.01 0.01 0.02 0.03 0.05 0.05 0.02 0.01 0.01 0.01 0.00 0.00 0.00 0.00 0.01 0.02 0.04 0.04 0.02 0.02 0.02 0.02 0.02
0.00 0.00 0.00 0.00 0.00 0.00 0.01 0.00 0.00 0.00 0.00 0.01 0.00 0.00 0.00 0.00 0.00 0.00 0.00 0.00 0.00 0.00 0.01 0.03 0.06 0.07 0.04 0.02 0.01 0.00 0.01 0.01 0.00 0.01 0.02 0.02 0.04 0.03 0.02 0.01 0.01 0.01 0.02
0.00 0.00 0.00 0.00 0.00 0.00 0.00 0.00 0.01 0.00 0.00 0.00 0.00 0.00 0.00 0.01 0.00 0.00 0.00 0.01 0.01 0.01 0.01 0.02 0.04 0.04 0.03 0.01 0.00 0.00 0.00 0.00 0.00 0.00 0.01 0.01 0.02 0.01 0.00 0.00 0.01 0.00 0.01
0.00 0.00 0.00 0.00 0.00 0.00 0.00 0.00 0.00 0.00 0.00 0.00 0.00 0.00 0.00 0.00 0.01 0.00 0.00 0.01 0.02 0.01 0.00 0.01 0.01 0.01 0.01 0.01 0.00 0.00 0.00 0.00 0.00 0.00 0.00 0.00 0.00 0.00 0.00 0.00 0.00 0.00 0.00
0.00 0.00 0.00 0.00 0.00 0.00 0.00 0.00 0.00 0.00 0.00 0.00 0.01 0.01 0.00 0.00 0.01 0.01 0.01 0.01 0.02 0.01 0.00 0.00 0.00 0.00 0.00 0.01 0.00 0.00 0.00 0.00 0.00 0.00 0.00 0.00 0.00 0.00 0.00 0.00 0.00 0.00 0.00
0.00 0.00 0.00 0.00 0.00 0.00 0.00 0.00 0.00 0.00 0.00 0.00 0.00 0.01 0.00 0.00 0.00 0.01 0.01 0.01 0.01 0.01 0.01 0.01 0.00 0.00 0.00 0.00 0.00 0.00 0.00 0.00 0.00 0.00 0.00 0.00 0.00 0.00 0.00 0.00 0.00 0.00 0.00
0.00 0.00 0.00 0.00 0.00 0.00 0.00 0.00 0.00 0.00 0.00 0.00 0.01 0.01 0.01 0.00 0.00 0.00 0.00 0.00 0.00 0.00 0.01 0.01 0.01 0.00 0.00 0.00 0.00 0.00 0.00 0.00 0.00 0.00 0.01 0.00 0.00 0.00 0.00 0.00 0.00 0.00 0.00
0.00 0.00 0.00 0.00 0.00 0.00 0.00 0.00 0.00 0.00 0.00 0.00 0.01 0.01 0.01 0.00 0.00 0.00 0.00 0.00 0.00 0.01 0.01 0.02 0.02 0.01 0.01 0.00 0.00 0.01 0.00 0.01 0.01 0.01 0.01 0.01 0.00 0.00 0.00 0.00 0.00 0.00 0.00
0.00 0.00 0.00 0.00 0.00 0.00 0.00 0.00 0.00 0.00 0.00 0.00 0.00 0.00 0.00 0.00 0.00 0.00 0.00 0.00 0.00 0.01 0.02 0.03 0.03 0.02 0.01 0.01 0.01 0.01 0.01 0.02 0.02 0.02 0.01 0.00 0.00 0.00 0.00 0.00 0.01 0.01 0.01
0.00 0.00 0.00 0.00 0.00 0.00 0.00 0.00 0.00 0.00 0.00 0.00 0.00 0.00 0.00 0.00 0.00 0.00 0.00 0.00 0.00 0.01 0.02 0.03 0.04 0.04 0.04 0.03 0.03 0.03 0.03 0.03 0.02 0.01 0.01 0.00 0.00 0.00 0.01 0.01 0.01 0.01 0.01
0.00 0.00 0.00 0.00 0.00 0.00 0.00 0.00 0.00 0.00 0.00 0.00 0.00 0.00 0.00 0.00 0.00 0.00 0.00 0.00 0.00 0.00 0.01 0.02 0.03 0.04 0.05 0.05 0.04 0.03 0.02 0.01 0.01 0.01 0.00 0.00 0.00 0.01 0.01 0.01 0.01 0.01 0.01
0.00 0.00 0.00 0.00 0.00 0.00 0.00 0.00 0.00 0.00 0.00 0.00 0.00 0.00 0.00 0.00 0.00 0.00 0.00 0.00 0.00 0.00 0.00 0.01 0.02 0.03 0.02 0.02 0.01 0.01 0.01 0.00 0.01 0.01 0.00 0.00 0.01 0.01 0.02 0.01 0.01 0.01 0.01
0.01 0.01 0.01 0.01 0.00 0.00 0.00 0.00 0.00 0.00 0.00 0.00 0.00 0.00 0.00 0.00 0.00 0.00 0.00 0.00 0.00 0.00 0.00 0.00 0.01 0.01 0.01 0.01 0.01 0.00 0.00 0.01 0.01 0.01 0.02 0.02 0.02 0.02 0.01 0.01 0.01 0.01 0.01
0.01 0.01 0.01 0.01 0.01 0.00 0.00 0.00 0.00 0.00 0.00 0.00 0.00 0.00 0.00 0.00 0.00 0.00 0.00 0.00 0.00 0.00 0.00 0.00 0.00 0.00 0.01 0.01 0.00 0.00 0.01 0.01 0.01 0.01 0.02 0.04 0.06 0.04 0.03 0.02 0.01 0.01 0.01
MSLP
1016.43 1016.47 1016.48 1016.48 1016.50 1016.55 1016.65 1016.77 1016.91 1017.04 1017.13 1017.16 1017.13 1017.03 1016.87 1016.64 1016.33 1015.90 1015.35 1014.66 1013.82 1012.87 1011.85 1010.86 1009.97 1009.30 1008.89 1008.81 1009.05 1009.57 1010.31 1011.17 1012.06 1012.91 1013.64 1014.23 1014.68 1015.00 1015.22 1015.37 1015.49 1015.62 1015.77
1016.61 1016.68 1016.74 1016.81 1016.90 1017.02 1017.18 1017.36 1017.54 1017.68 1017.78 1017.82 1017.78 1017.68 1017.51 1017.26 1016.93 1016.50 1015.95 1015.26 1014.44 1013.53 1012.56 1011.62 1010.79 1010.15 1009.77 1009.69 1009.89 1010.35 1011.00 1011.77 1012.58 1013.34 1014.01 1014.57 1015.00 1015.32 1015.55 1015.72 1015.87 1016.02 1016.18
1016.77 1016.87 1016.97 1017.11 1017.27 1017.47 1017.69 1017.92 1018.13 1018.30 1018.41 1018.44 1018.41 1018.31 1018.13 1017.89 1017.57 1017.14 1016.61 1015.96 1015.20 1014.35 1013.47 1012.62 1011.88 1011.32 1010.98 1010.90 1011.06 1011.45 1012.00 1012.64 1013.32 1013.97 1014.54 1015.03 1015.42 1015.73 1015.98 1016.19 1016.37 1016.54 1016.72
1016.93 1017.04 1017.19 1017.38 1017.61 1017.87 1018.15 1018.42 1018.65 1018.83 1018.95 1018.99 1018.96 1018.87 1018.72 1018.50 1018.20 1017.82 1017.33 1016.74 1016.06 1015.32 1014.55 1013.81 1013.17 1012.69 1012.41 1012.33 1012.46 1012.76 1013.19 1013.69 1014.22 1014.72 1015.18 1015.58 1015.92 1016.22 1016.47 1016.71 1016.92 1017.13 1017.33
1017.13 1017.24 1017.42 1017.64 1017.92 1018.23 1018.54 1018.83 1019.07 1019.25 1019.37 1019.42 1019.41 1019.35 1019.23 1019.06 1018.83 1018.51 1018.10 1017.60 1017.02 1016.39 1015.73 1015.11 1014.58 1014.18 1013.94 1013.87 1013.95 1014.17 1014.47 1014.83 1015.20 1015.55 1015.88 1016.18 1016.46 1016.73 1016.98 1017.24 1017.48 1017.71 1017.92
1017.37 1017.47 1017.65 1017.90 1018.20 1018.53 1018.85 1019.13 1019.37 1019.54 1019.65 1019.71 1019.73 1019.71 1019.67 1019.58 1019.43 1019.22 1018.91 1018.52 1018.05 1017.52 1016.98 1016.46 1016.02 1015.69 1015.48 1015.40 1015.44 1015.56 1015.74 1015.96 1016.18 1016.39 1016.59 1016.80 1017.01 1017.23 1017.47 1017.73 1017.98 1018.22 1018.43
1017.65 1017.73 1017.91 1018.16 1018.46 1018.77 1019.08 1019.34 1019.54 1019.69 1019.79 1019.87 1019.93 1019.98 1020.02 1020.04 1020.01 1019.92 1019.74 1019.46 1019.10 1018.68 1018.23 1017.80 1017.42 1017.13 1016.93 1016.84 1016.82 1016.86 1016.94 1017.03 1017.12 1017.20 1017.30 1017.41 1017.55 1017.72 1017.93 1018.16 1018.41 1018.64 1018.83
1017.95 1018.02 1018.18 1018.41 1018.69 1018.98 1019.24 1019.46 1019.62 1019.74 1019.83 1019.92 1020.03 1020.16 1020.30 1020.44 1020.55 1020.59 1020.54 1020.38 1020.13 1019.80 1019.43 1019.06 1018.72 1018.45 1018.25 1018.12 1018.05 1018.02 1018.01 1018.00 1017.99 1017.97 1017.98 1018.01 1018.08 1018.20 1018.36 1018.55 1018.76 1018.96 1019.13
1018.26 1018.31 1018.45 1018.66 1018.91 1019.16 1019.37 1019.53 1019.65 1019.73 1019.80 1019.91 1020.06 1020.27 1020.52 1020.78 1021.02 1021.19 1021.27 1021.23 1021.07 1020.82 1020.51 1020.18 1019.86 1019.60 1019.38 1019.22 1019.11 1019.02 1018.94 1018.85 1018.77 1018.69 1018.63 1018.59 1018.61 1018.67 1018.78 1018.93 1019.08 1019.23 1019.35
1018.56 1018.59 1018.71 1018.90 1019.12 1019.33 1019.49 1019.59 1019.66 1019.70 1019.76 1019.88 1020.07 1020.34 1020.68 1021.04 1021.40 1021.68 1021.87 1021.92 1021.85 1021.67 1021.41 1021.11 1020.81 1020.54 1020.31 1020.12 1019.97 1019.84 1019.72 1019.59 1019.47 1019.35 1019.25 1019.18 1019.16 1019.17 1019.23 1019.32 1019.42 1019.51 1019.59
1018.82 1018.85 1018.97 1019.15 1019.34 1019.50 1019.62 1019.68 1019.70 1019.71 1019.75 1019.87 1020.08 1020.39 1020.78 1021.22 1021.65 1022.03 1022.29 1022.43 1022.42 1022.30 1022.09 1021.82 1021.54 1021.27 1021.04 1020.83 1020.66 1020.51 1020.36 1020.22 1020.08 1019.95 1019.84 1019.76 1019.71 1019.70 1019.72 1019.77 1019.81 1019.86 1019.89
1019.05 1019.10 1019.22 1019.39 1019.56 1019.70 1019.79 1019.81 1019.80 1019.78 1019.80 1019.91 1020.12 1020.44 1020.85 1021.32 1021.79 1022.20 1022.52 1022.71 1022.76 1022.70 1022.53 1022.31 1022.06 1021.81 1021.58 1021.38 1021.20 1021.04 1020.89 1020.74 1020.61 1020.49 1020.39 1020.32 1020.27 1020.26 1020.26 1020.27 1020.29 1020.29 1020.29
1019.23 1019.31 1019.45 1019.63 1019.79 1019.92 1019.99 1020.00 1019.96 1019.93 1019.93 1020.01 1020.20 1020.50 1020.89 1021.35 1021.81 1022.23 1022.56 1022.78 1022.88 1022.87 1022.76 1022.59 1022.39 1022.18 1021.98 1021.79 1021.62 1021.46 1021.31 1021.17 1021.05 1020.95 1020.87 1020.83 1020.80 1020.80 1020.81 1020.82 1020.81 1020.80 1020.77
1019.38 1019.49 1019.66 1019.85 1020.02 1020.15 1020.22 1020.22 1020.18 1020.14 1020.12 1020.18 1020.34 1020.59 1020.93 1021.33 1021.75 1022.14 1022.46 1022.69 1022.82 1022.86 1022.82 1022.72 1022.58 1022.42 1022.26 1022.10 1021.94 1021.79 1021.65 1021.52 1021.41 1021.32 1021.27 1021.25 1021.26 1021.29 1021.32 1021.34 1021.35 1021.33 1021.29
1019.49 1019.64 1019.83 1020.04 1020.23 1020.37 1020.45 1020.47 1020.44 1020.40 1020.38 1020.41 1020.52 1020.72 1021.00 1021.32 1021.67 1022.00 1022.29 1022.51 1022.67 1022.75 1022.77 1022.75 1022.68 1022.59 1022.48 1022.35 1022.21 1022.06 1021.92 1021.78 1021.67 1021.60 1021.57 1021.57 1021.61 1021.67 1021.73 1021.78 1021.80 1021.80 1021.77
1019.56 1019.75 1019.97 1020.20 1020.40 1020.56 1020.66 1020.70 1020.70 1020.68 1020.66 1020.69 1020.76 1020.90 1021.10 1021.34 1021.61 1021.87 1022.11 1022.31 1022.48 1022.60 1022.69 1022.74 1022.75 1022.73 1022.67 1022.57 1022.45 1022.30 1022.13 1021.98 1021.86 1021.77 1021.74 1021.76 1021.82 1021.91 1021.99 1022.07 1022.11 1022.12 1022.09
1019.61 1019.83 1020.07 1020.31 1020.52 1020.70 1020.83 1020.90 1020.94 1020.95 1020.95 1020.98 1021.04 1021.13 1021.27 1021.43 1021.61 1021.80 1021.99 1022.17 1022.33 1022.49 1022.62 1022.74 1022.82 1022.86 1022.84 1022.78 1022.66 1022.49 1022.31 1022.12 1021.97 1021.85 1021.80 1021.81 1021.87 1021.96 1022.05 1022.14 1022.19 1022.21 1022.18
1019.63 1019.87 1020.13 1020.37 1020.60 1020.79 1020.94 1021.05 1021.12 1021.18 1021.22 1021.26 1021.32 1021.39 1021.48 1021.58 1021.70 1021.82 1021.95 1022.10 1022.26 1022.42 1022.60 1022.76 1022.89 1022.98 1023.00 1022.96 1022.84 1022.66 1022.45 1022.22 1022.02 1021.86 1021.77 1021.74 1021.77 1021.84 1021.92 1021.99 1022.03 1022.04 1022.01
1019.64 1019.89 1020.15 1020.40 1020.62 1020.82 1020.99 1021.13 1021.24 1021.34 1021.43 1021.51 1021.58 1021.65 1021.72 1021.78 1021.84 1021.91 1022.00 1022.11 1022.24 1022.41 1022.60 1022.79 1022.95 1023.07 1023.12 1023.09 1022.98 1022.78 1022.54 1022.28 1022.03 1021.82 1021.66 1021.58 1021.56 1021.57 1021.61 1021.65 1021.66 1021.63 1021.58
1019.63 1019.90 1020.15 1020.39 1020.61 1020.80 1020.98 1021.14 1021.29 1021.43 1021.56 1021.68 1021.79 1021.87 1021.94 1021.98 1022.01 1022.04 1022.08 1022.15 1022.26 1022.41 1022.59 1022.78 1022.96 1023.10 1023.17 1023.15 1023.04 1022.85 1022.59 1022.30 1022.01 1021.74 1021.53 1021.38 1021.28 1021.23 1021.20 1021.16 1021.12 1021.04 1020.95
1019.62 1019.89 1020.14 1020.36 1020.56 1020.74 1020.91 1021.08 1021.25 1021.43 1021.60 1021.76 1021.90 1022.02 1022.09 1022.13 1022.14 1022.14 1022.14 1022.18 1022.25 1022.37 1022.53 1022.71 1022.89 1023.03 1023.12 1023.11 1023.02 1022.83 1022.58 1022.28 1021.96 1021.66 1021.39 1021.17 1021.00 1020.86 1020.74 1020.62 1020.50 1020.36 1020.21
1019.60 1019.87 1020.10 1020.30 1020.48 1020.64 1020.79 1020.96 1021.14 1021.33 1021.53 1021.73 1021.90 1022.04 1022.14 1022.18 1022.19 1022.17 1022.14 1022.14 1022.17 1022.25 1022.37 1022.53 1022.70 1022.84 1022.93 1022.95 1022.88 1022.73 1022.50 1022.21 1021.89 1021.57 1021.27 1020.99 1020.74 1020.51 1020.30 1020.09 1019.89 1019.67 1019.46
1019.54 1019.81 1020.03 1020.21 1020.36 1020.49 1020.63 1020.77 1020.94 1021.14 1021.36 1021.58 1021.78 1021.94 1022.05 1022.11 1022.11 1022.08 1022.03 1021.99 1021.99 1022.02 1022.11 1022.23 1022.38 1022.52 1022.62 1022.66 1022.63 1022.52 1022.33 1022.07 1021.78 1021.46 1021.14 1020.82 1020.52 1020.22 1019.92 1019.63 1019.33 1019.05 1018.77
1019.42 1019.69 1019.90 1020.07 1020.19 1020.29 1020.40 1020.52 1020.67 1020.86 1021.08 1021.31 1021.52 1021.70 1021.83 1021.90 1021.91 1021.87 1021.81 1021.74 1021.70 1021.70 1021.75 1021.84 1021.96 1022.08 1022.19 1022.25 1022.26 1022.19 1022.06 1021.86 1021.60 1021.31 1020.99 1020.65 1020.31 1019.96 1019.59 1019.23 1018.87 1018.51 1018.18
1019.23 1019.50 1019.71 1019.85 1019.95 1020.03 1020.11 1020.21 1020.34 1020.51 1020.71 1020.93 1021.15 1021.34 1021.48 1021.56 1021.58 1021.55 1021.48 1021.40 1021.34 1021.31 1021.32 1021.37 1021.46 1021.57 1021.67 1021.75 1021.79 1021.76 1021.68 1021.53 1021.32 1021.06 1020.77 1020.44 1020.08 1019.69 1019.29 1018.88 1018.46 1018.06 1017.69
1018.95 1019.22 1019.42 1019.56 1019.65 1019.70 1019.76 1019.83 1019.94 1020.09 1020.28 1020.50 1020.71 1020.91 1021.06 1021.15 1021.19 1021.17 1021.11 1021.02 1020.95 1020.89 1020.87 1020.89 1020.95 1021.03 1021.12 1021.20 1021.24 1021.24 1021.19 1021.08 1020.92 1020.70 1020.43 1020.11 1019.76 1019.37 1018.96 1018.52 1018.08 1017.65 1017.24
Thickness
5726 5724 5722 5720 5718 5717 5716 5715 5714 5715 5715 5715 5716 5717 5718 5719 5721 5723 5725 5727 5730 5732 5734 5736 5738 5740 5742 5745 5747 5748 5749 5751 5753 5754 5756 5757 5758 5759 5760 5761 5762 5762 5763
5725 5723 5721 5718 5716 5715 5714 5713 5712 5712 5712 5713 5713 5714 5715 5716 5717 5719 5721 5723 5725 5728 5730 5732 5733 5736 5738 5741 5743 5744 5746 5747 5749 5751 5752 5754 5755 5756 5757 5757 5758 5759 5759
5724 5722 5720 5717 5715 5714 5713 5711 5710 5710 5709 5709 5709 5711 5712 5713 5714 5715 5717 5719 5721 5723 5725 5727 5729 5731 5733 5736 5738 5740 5742 5744 5746 5747 5749 5750 5752 5753 5753 5754 5755 5755 5756
5723 5721 5719 5716 5714 5713 5712 5710 5708 5706 5705 5705 5705 5706 5707 5708 5710 5711 5712 5714 5716 5718 5720 5721 5723 5725 5728 5730 5733 5735 5737 5739 5741 5743 5745 5746 5748 5749 5749 5750 5751 5751 5752
5722 5721 5718 5715 5714 5712 5710 5709 5706 5705 5702 5701 5701 5701 5702 5704 5705 5707 5708 5709 5711 5713 5714 5716 5718 5720 5722 5725 5728 5730 5733 5735 5737 5739 5740 5741 5743 5744 5745 5746 5746 5747 5748
5721 5719 5717 5715 5713 5711 5708 5707 5704 5703 5701 5700 5700 5697 5697 5699 5701 5702 5703 5705 5706 5708 5710 5712 5713 5715 5716 5719 5722 5725 5728 5730 5732 5734 5735 5736 5738 5739 5740 5741 5742 5742 5743
5720 5718 5716 5714 5713 5710 5707 5705 5703 5701 5698 5699 5696 5692 5692 5695 5696 5697 5699 5700 5702 5703 5705 5707 5708 5710 5711 5714 5716 5720 5723 5726 5728 5729 5730 5731 5733 5734 5735 5735 5736 5737 5738
5719 5717 5715 5713 5711 5709 5706 5705 5703 5699 5697 5697 5693 5688 5683 5684 5689 5692 5694 5696 5697 5699 5700 5702 5704 5705 5707 5709 5711 5714 5718 5721 5724 5725 5726 5726 5728 5728 5729 5730 5731 5732 5733
5717 5716 5714 5713 5711 5709 5706 5704 5703 5700 5696 5696 5695 5690 5681 5677 5681 5685 5688 5691 5692 5694 5695 5697 5699 5700 5702 5704 5706 5709 5712 5716 5719 5720 5720 5721 5722 5723 5724 5724 5725 5726 5727
5716 5715 5714 5712 5710 5709 5707 5705 5704 5701 5698 5694 5693 5692 5690 5687 5681 5679 5682 5686 5688 5689 5691 5693 5694 5696 5697 5699 5701 5704 5707 5710 5712 5713 5715 5716 5717 5718 5718 5719 5720 5721 5722
5715 5714 5713 5712 5710 5708 5707 5705 5704 5702 5699 5696 5693 5691 5689 5687 5686 5681 5677 5680 5683 5685 5686 5688 5689 5691 5692 5694 5696 5698 5701 5704 5706 5707 5709 5710 5711 5712 5713 5714 5714 5715 5715
5713 5713 5712 5711 5710 5708 5707 5705 5704 5702 5700 5698 5696 5693 5691 5688 5685 5683 5678 5676 5677 5680 5682 5684 5685 5686 5688 5689 5691 5693 5695 5698 5700 5701 5703 5704 5705 5706 5706 5707 5708 5709 5709
5710 5711 5711 5710 5709 5708 5707 5706 5704 5702 5700 5698 5696 5694 5693 5692 5690 5686 5681 5676 5675 5676 5678 5680 5681 5682 5684 5685 5687 5688 5690 5692 5694 5695 5696 5697 5698 5699 5700 5701 5701 5702 5702
5710 5710 5710 5709 5708 5707 5706 5705 5703 5701 5699 5697 5696 5694 5693 5692 5692 5689 5684 5678 5673 5671 5673 5675 5677 5678 5680 5681 5682 5684 5685 5686 5688 5689 5690 5691 5691 5692 5693 5693 5694 5694 5695
5711 5710 5709 5708 5707 5706 5705 5703 5701 5699 5698 5696 5695 5694 5692 5691 5690 5689 5686 5683 5676 5670 5669 5671 5672 5674 5676 5677 5678 5679 5680 5681 5682 5683 5684 5684 5685 5685 5686 5686 5687 5687 5688
5710 5709 5707 5706 5705 5704 5703 5701 5699 5697 5696 5694 5693 5692 5690 5689 5688 5686 5685 5683 5680 5675 5669 5669 5669 5671 5671 5672 5673 5674 5675 5676 5676 5677 5678 5678 5678 5679 5679 5680 5680 5680 5681
5709 5707 5706 5704 5703 5702 5700 5699 5696 5695 5693 5691 5690 5688 5687 5686 5684 5683 5682 5681 5678 5675 5669 5667 5667 5668 5667 5667 5668 5669 5670 5671 5671 5672 5672 5673 5673 5673 5673 5673 5674 5674 5674
5708 5706 5704 5702 5701 5699 5698 5696 5694 5692 5690 5688 5687 5685 5684 5683 5681 5680 5679 5677 5675 5674 5670 5665 5664 5664 5663 5663 5663 5664 5665 5665 5666 5666 5667 5667 5667 5668 5667 5667 5667 5667 5667
5705 5703 5702 5700 5698 5697 5695 5694 5692 5690 5688 5687 5685 5683 5681 5679 5677 5676 5675 5673 5672 5671 5668 5665 5661 5660 5659 5659 5658 5658 5659 5660 5661 5661 5661 5662 5662 5661 5661 5661 5661 5661 5661
5702 5701 5699 5698 5696 5695 5693 5691 5689 5687 5685 5684 5682 5680 5679 5677 5676 5674 5672 5670 5668 5666 5664 5661 5658 5656 5655 5654 5652 5651 5651 5653 5654 5655 5655 5655 5655 5655 5654 5654 5654 5654 5653
5701 5698 5696 5695 5694 5692 5691 5689 5687 5684 5682 5680 5678 5677 5676 5675 5674 5673 5670 5667 5665 5661 5658 5655 5653 5651 5649 5647 5646 5645 5645 5645 5647 5648 5648 5648 5648 5648 5647 5647 5646 5646 5646
5696 5695 5693 5691 5690 5690 5689 5688 5685 5682 5679 5676 5674 5672 5672 5671 5671 5669 5668 5666 5663 5659 5654 5651 5648 5646 5645 5644 5642 5641 5639 5638 5638 5641 5640 5640 5641 5640 5640 5640 5639 5638 5638
5693 5690 5689 5688 5686 5686 5686 5684 5682 5679 5676 5673 5670 5669 5668 5667 5666 5664 5662 5661 5659 5657 5655 5651 5646 5644 5642 5641 5639 5636 5633 5631 5631 5633 5632 5632 5632 5631 5632 5632 5631 5630 5629
5690 5687 5685 5684 5682 5682 5682 5680 5678 5675 5672 5669 5667 5666 5664 5662 5661 5659 5657 5654 5652 5651 5650 5648 5645 5643 5641 5639 5635 5632 5629 5626 5625 5624 5622 5620 5622 5622 5624 5623 5622 5621 5620
5686 5684 5683 5680 5678 5677 5677 5676 5673 5670 5666 5665 5663 5661 5660 5658 5657 5655 5651 5648 5645 5644 5644 5642 5640 5638 5635 5633 5629 5625 5620 5617 5615 5614 5613 5610 5611 5611 5613 5613 5613 5611 5610
5684 5681 5678 5677 5675 5673 5673 5671 5669 5665 5661 5659 5658 5657 5656 5654 5653 5650 5646 5643 5639 5639 5637 5635 5633 5630 5628 5625 5622 5618 5614 5608 5604 5603 5604 5601 5599 5598 5600 5602 5602 5601 5599